Other Public Products
Issued by NWS Grand Forks, ND

Home | Current Version | Previous Version | Text Only | Print | Product List | Glossary Off
Versions: 1 2 3 4 5 6 7 8 9 10 11 12 13 14 15 16 17 18 19 20 21 22 23 24 25 26 27 28 29 30 31 32 33 34 35 36 37 38 39 40 41 42 43 44 45 46 47 48 49 50

000
FPUS83 KFGF 291510
OPUFGF
PRAIRIE TO PINES WEATHER ROUNDUP
NATIONAL WEATHER SERVICE EASTERN NORTH DAKOTA/GRAND FORKS ND
1000 AM CDT SUN MAY 29 2016

 **SATELLITE DATA USED TO AUGMENT SKY COVER AT AUTOMATED STATIONS**
 *****  WEATHER ACROSS EASTERN NORTH DAKOTA  *****

CITY           SKY/WX    TMP DP  RH WIND       PRES   REMARKS
GRAND FORKS    PTSUNNY   64  56  75 NW12      29.93S
GRAND FORKS AF CLOUDY    65  57  75 NW8       29.94R
GRAND CITY NWS   N/A     63 N/A N/A VRB6        N/A
BUXTON           N/A     63  60  90 NW12        N/A
DEVILS LAKE    MOSUNNY   64  55  72 W14       29.95F
FARGO          CLOUDY    67  58  72 NW10      29.94R
WAHPETON ARPT  MOSUNNY   66  55  68 NW12      29.96S
$$

 *****  WEATHER ACROSS CENTRAL AND WESTERN NORTH DAKOTA  *****

CITY           SKY/WX    TMP DP  RH WIND       PRES   REMARKS
JAMESTOWN      MOSUNNY   65  57  75 W12       29.98R
BISMARCK       SUNNY     64  57  78 SW6       30.03S
MINOT          SUNNY     69  49  48 W15       29.97S
MINOT AFB      SUNNY     64  53  67 W13       29.96F
GARRISON         N/A     65  54  67 W12       30.01R
WILLISTON      SUNNY     62  45  53 W7        30.01F
DICKINSON      SUNNY     63  40  42 W8        30.04S
HETTINGER      SUNNY     65  51  60 W8        30.08S
$$

 *****  OTHER OBSERVATIONS NORTHEAST NORTH DAKOTA  *****

CITY           SKY/WX    TMP DP  RH WIND       PRES   REMARKS
WALHALLA       FAIR      57  54  88 N8        29.94S
LANGDON        CLOUDY    59  57  94 NW12      29.94F
CAVALIER       CLOUDY    59  57  94 NW8       29.93S
GRAFTON        CLOUDY    61  59  94 NW13      29.95S
CANDO          NOT AVBL
FORT TOTTEN      N/A     65  60  84 NW7       29.95
ROLLA          FAIR      63  54  72 W13       29.96S
RUGBY          FAIR      63  59  88 NW12      29.96S
 ***** THE ABOVE OBSERVATIONS ARE NON NWS ARE NOT QUALITY
        CONTROLLED AND MAY MIS-REPORT RAIN FOR SNOW...
$$

 *****  OTHER OBSERVATIONS SOUTHEAST NORTH DAKOTA *****

CITY           SKY/WX    TMP DP  RH WIND       PRES   REMARKS
COOPERSTOWN    NOT AVBL
VALLEY CITY    CLOUDY    61  61 100 W12       30.00R
OAKES            N/A    N/A N/A N/A MISG        N/A
GWINNER        FAIR      66  61  82 W9        29.98R
SHEYENNE NWR     N/A     68  60  76 NW7       29.95
BUFFALO          N/A     60  57  92 W8          N/A
WYNDMERE         N/A     70  59  68 W7          N/A
 ***** THE ABOVE OBSERVATIONS ARE NON NWS ARE NOT QUALITY
       CONTROLLED AND MAY MIS-REPORT RAIN FOR SNOW...
$$

  *****  WEATHER ACROSS NORTHERN MINNESOTA  *****

CITY           SKY/WX    TMP DP  RH WIND       PRES   REMARKS
FLAG ISLAND    CLOUDY    55  52  88 NW13      29.85R
WARROAD        CLOUDY    57  54  88 W8        29.89R
ROSEAU         CLOUDY    55  52  88 NW8       29.89S
HALLOCK        CLOUDY    61  55  82 NW8       29.92S
THF RVR FALLS  CLOUDY    57  52  82 NW13      29.94R
HALSTAD        NOT AVBL
FOSSTON        CLOUDY    57  55  94 NW12      29.93S
BAUDETTE       CLOUDY    57  54  89 NW12      29.86S
WASKISH        CLOUDY    57  55  94 W12       29.88R
CROOKSTON      CLOUDY    61  55  82 N12       29.94R
$$
  *****  WEATHER ACROSS CENTRAL AND WEST MINNESOTA  *****

CITY           SKY/WX    TMP DP  RH WIND       PRES   REMARKS
BEMIDJI        CLOUDY    57  55  91 W13       29.90S
PARK RAPIDS    CLOUDY    62  56  80 NW14      29.92R
WADENA         CLOUDY    61  57  88 W7        29.93S
DETROIT LAKES  CLOUDY    61  59  94 NW7       29.95R
MOORHEAD       PTSUNNY   63  59  88 NW10      29.96R
FERGUS FALLS   PTSUNNY   64  61  88 NW12      29.92S
ELBOW LAKE     PTSUNNY   64  59  86 NW10      29.96S
MORRIS MN      MOSUNNY   64  61  88 NW9       29.96R
STAPLES        CLOUDY    63  55  77 NW12      29.93R
WHEATON        SUNNY     70  61  73 W8        29.98S
$$
  *****  WEATHER ELSEWHERE ACROSS MINNESOTA  *****

CITY           SKY/WX    TMP DP  RH WIND       PRES   REMARKS
DULUTH         LGT RAIN  60  57  89 NW13      29.83R
INTRNTL FALLS  LGT RAIN  57  54  89 NW13      29.83R FOG
ELY            CLOUDY    57  55  94 W9G18     29.79S FOG
CLOQUET        CLOUDY    61  55  82 W7        29.85R
BRAINERD       CLOUDY    62  56  80 W9        29.92R
HIBBING        CLOUDY    58  54  86 NW12      29.84S
ALEXANDRIA     PTSUNNY   64  57  78 NW12      29.96S
SAINT CLOUD    CLOUDY    65  58  78 NW17      29.93R
MINNEAPOLIS    PTSUNNY   68  58  70 W10       29.93R
$$

  *****  WEATHER ACROSS SOUTH DAKOTA  *****

CITY           SKY/WX    TMP DP  RH WIND       PRES   REMARKS
SIOUX FALLS    MOSUNNY   69  60  73 W6        30.04R
BROOKINGS      SUNNY     66  55  67 NW10      30.03R
WATERTOWN      SUNNY     67  55  65 NW13      30.01R
HURON          SUNNY     68  57  68 NW8       30.04R
SISSETON         N/A     69  57  65 NW13      29.96R
ABERDEEN       SUNNY     69  56  62 NW12      30.01S
MITCHELL       SUNNY     68  58  70 NW9       30.06R
PIERRE         SUNNY     66  53  63 W3        30.07R
MOBRIDGE       MOSUNNY   64  53  67 CALM      30.04R
RAPID CITY     CLOUDY    63  48  58 W3        30.11R
$$

  *****  SOME WEATHER IN NEARBY STATES *****

CITY           SKY/WX    TMP DP  RH WIND       PRES   REMARKS
GLASGOW MT     SUNNY     57  39  51 W5        30.01S
GREAT FALLS MT SUNNY     59  38  45 SW12      30.03S
CHEYENNE WY    SUNNY     64  39  39 VRB3      30.20R
SCOTTSBLUFF NE SUNNY     60  49  66 VRB3      30.13R
OMAHA NE       CLOUDY    70  59  68 S6        30.10R
DES MOINES IA  MOSUNNY   70  58  65 W10       30.08R
DAVENPORT IA   PTSUNNY   69  61  75 W16       30.05R
CHICAGO IL     MOSUNNY   74  61  63 SW14G23   29.99S
EAU CLAIRE WI  LGT RAIN  64  61  90 W9        29.89S
LA CROSSE WI   CLOUDY    70  60  70 W10       29.93S
$$

  *****  SOME NATIONAL WEATHER *****

CITY           SKY/WX    TMP DP  RH WIND       PRES   REMARKS
LA GUARDIA NY  PTSUNNY   86  64  47 SW8       30.13S
RALEIGH NC     LGT RAIN  72  70  93 NE7       30.10F FOG
ATLANTA GA     PTSUNNY   78  63  59 N5        30.14S
NEW ORLEANS LA PTSUNNY   84  73  69 N8        30.12S HX  90
OKLAHOMA CITY  MOSUNNY   77  60  55 W8        30.16R
ALBUQUERQUE NM MOSUNNY   66  22  18 S3        30.18R
SALT LAKE CITY MOSUNNY   66  43  43 S6        30.09R
LOS ANGELES CA CLOUDY    61  54  77 W7        30.01R
BOISE ID       SUNNY     62  33  33 SE13      30.05R
SEATTLE WA     CLOUDY    54  51  90 SW7       30.11R
$$

*** WEATHER ACROSS MANITOBA...SASKATCHEWAN AND ONTARIO ***
                ***ONTARIO***

CITY           SKY/WX    TMP DP  RH WIND       PRES   REMARKS
GERALDTON      DRZL/FOG  55  55 100 E3        29.78R VSB 3/4
THUNDER BAY    CLOUDY    57  57 100 E10       29.75F FOG
SIOUX LOOKOUT  LGT RAIN  55  52  88 NE6       29.79F
TORONTO        NOT AVBL
BIG TROUT LK   LGT RAIN  45  43  93 E10       29.99F
PICKLE LAKE    CLOUDY    46  45  93 NE9G17    29.84F FOG
DRYDEN         LGT RAIN  54  52  94 N5        29.80F FOG
KENORA         LGT RAIN  54  52  94 NW10      29.84F
$$
                *** MANITOBA***

CITY           SKY/WX    TMP DP  RH WIND       PRES   REMARKS
BRANDON        CLOUDY    57  54  88 W14       29.94S
DAUPHIN        CLOUDY    54  52  94 VRB2      29.93S
ISLAND LAKE    NOT AVBL
PILOT MOUND    NOT AVBL
THE PAS        DRIZZLE   46  45  93 NE6       29.95F
THOMPSON       DRIZZLE   48  48 100 E7        30.00F FOG
WINNIPEG       PTSUNNY   61  55  82 NW10      29.90F
LYNN LAKE      CLOUDY    46  41  81 NE9       30.01S
CHURCHILL      CLOUDY    30  27  86 E9        30.23F WCI  22
GILLAM         LGT RAIN  41  37  87 NE9       30.08F
$$
                ***SASKATCHEWAN***

CITY           SKY/WX    TMP DP  RH WIND       PRES   REMARKS
ESTEVAN        SUNNY     61  52  72 SW7       29.97S
KINDERSLEY     MOSUNNY   54  45  71 S3        29.88S
LLOYDMINSTER   CLOUDY    48  46  93 NW7       29.88S FOG
PRINCE ALBERT  DRIZZLE   50  48  93 E10       29.87S
REGINA         SUNNY     57  48  72 SW9       29.94S
YORKTON        MOSUNNY   59  52  77 SW7       29.91S  C1F1C2F2C3F3C4F4C5F5C6F6C7F7C8F8C9F9CaFaCbFbCcFcCdFdCe!



USA.gov is the U.S. government's official web portal to all federal, state and local government web resources and services.